GFSNGP_con_lsi_102.txt.gz
Lid_Strength_Index
12 11 11 12 12 12 13 12 15 12 12 10 8 7 7 8 9 10 10 9 9 9 9 9 8 8 8 7 6 5 5 5 5 6 6 7 9 10 12 13 13 14 14 13
14 12 12 13 11 11 12 11 11 11 11 7 8 9 9 9 10 10 9 9 9 9 9 9 8 8 8 8 8 7 6 6 6 9 11 11 11 12 13 15 15 14 14 14
16 13 13 15 13 12 11 10 11 13 10 7 9 9 7 7 8 9 9 8 8 8 8 8 8 8 9 8 9 8 8 10 11 11 12 12 13 14 14 16 15 15 14 13
16 15 19 12 11 9 10 10 9 9 8 8 7 7 7 6 6 7 8 8 8 7 8 8 8 9 8 10 11 11 10 11 12 13 13 14 14 15 17 16 16 16 15 13
16 16 13 12 12 12 12 11 9 9 8 8 7 7 8 7 7 7 6 7 8 7 8 8 8 8 10 11 12 12 13 12 12 12 14 15 15 15 15 16 17 15 16 14
16 17 19 13 11 10 9 14 8 8 8 8 8 12 9 6 8 8 7 8 8 7 8 9 8 8 10 11 12 12 13 13 13 14 14 14 15 15 16 16 15 17 15 14
15 16 14 11 11 10 14 12 10 9 8 8 10 8 8 8 9 9 8 8 8 8 8 9 9 11 11 11 12 11 12 13 13 13 13 13 15 15 15 16 16 15 16 16
14 16 17 11 12 11 9 10 9 9 10 10 9 10 10 10 10 10 10 10 9 9 9 9 11 11 12 12 12 13 14 14 14 13 14 15 15 16 15 15 16 16 16 16
12 13 9 10 9 9 9 9 9 9 9 10 10 10 10 10 10 11 11 11 11 11 11 11 12 11 12 12 13 14 14 14 14 14 14 15 16 16 16 15 16 17 17 18
12 12 10 11 11 10 10 10 10 10 10 10 10 10 10 11 11 12 13 13 13 12 12 12 13 13 12 13 13 14 14 14 15 15 16 15 15 15 15 16 16 17 17 18
12 12 12 11 11 10 10 10 10 10 11 11 10 11 11 12 13 13 14 14 14 14 14 14 14 13 13 14 14 14 13 14 14 14 15 15 15 15 16 15 15 17 16 17
11 11 10 11 10 10 10 11 11 11 11 13 12 12 12 14 14 14 15 15 14 15 15 15 15 15 14 14 13 14 15 16 15 16 16 16 17 17 16 16 15 15 15 15
12 11 12 12 12 11 11 12 13 13 13 14 15 14 14 15 16 16 16 16 17 17 17 17 16 16 16 15 14 15 15 16 16 17 17 18 18 18 19 17 16 16 15 16
15 12 13 13 14 13 13 14 15 16 16 16 16 16 16 17 17 18 19 19 18 18 18 18 18 19 19 16 15 15 15 16 16 17 17 17 17 17 18 19 19 18 16 16
18 15 14 15 15 16 15 15 17 17 17 17 17 18 18 18 20 20 21 21 19 19 20 20 20 20 19 18 16 16 16 17 17 17 17 17 17 18 18 19 18 19 21 18
21 19 18 19 20 20 19 19 18 19 19 19 19 19 19 19 20 21 22 22 20 22 23 22 21 23 21 18 17 17 17 17 17 17 17 18 18 18 18 18 18 19 21 20
19 21 22 22 22 24 25 25 23 23 22 23 23 21 21 20 21 22 23 24 23 24 25 25 25 24 22 20 18 17 17 18 18 17 17 17 17 17 17 17 17 18 18 19
26 26 26 26 25 25 26 27 27 27 27 26 24 24 24 25 25 25 25 23 22 24 27 27 25 25 24 22 20 19 18 19 18 18 19 19 18 18 19 18 19 19 20 20
29 29 29 29 29 29 30 30 30 29 29 28 26 27 27 28 27 26 25 27 27 24 27 28 24 25 24 22 22 20 20 20 20 20 19 20 19 19 19 20 20 20 20 21
31 30 30 30 31 32 32 32 31 31 31 30 29 28 28 30 30 27 26 29 31 31 30 28 27 25 25 25 24 21 21 20 20 20 20 20 20 20 21 22 21 21 21 21
33 32 32 31 32 33 34 34 33 32 32 32 31 32 31 31 30 29 26 25 29 31 30 28 28 26 25 25 23 23 22 22 22 21 21 21 21 21 21 21 21 21 21 21
34 34 33 32 32 32 33 34 34 33 33 33 33 32 30 30 30 30 33 31 30 30 29 27 26 26 26 26 25 24 24 23 23 22 22 22 21 21 21 21 21 21 20 20
33 33 32 33 33 33 32 34 34 34 34 35 35 34 32 31 31 29 27 29 30 28 27 26 27 25 26 26 26 26 25 25 25 24 24 23 23 22 22 21 21 21 21 21
33 33 33 32 32 32 32 33 33 33 34 35 35 36 34 30 29 30 30 30 30 29 28 25 24 24 28 26 26 26 26 25 25 24 23 25 23 23 22 22 22 21 21 21
34 34 33 33 32 33 34 34 32 31 32 31 31 31 33 32 31 29 29 28 27 27 26 26 23 24 25 25 25 24 24 24 23 23 23 23 23 23 22 22 22 22 21 21
33 33 33 33 33 33 33 32 32 31 31 31 29 29 29 28 28 28 27 28 26 26 25 25 24 24 24 24 24 24 23 23 23 23 23 23 22 22 22 22 22 21 21 21
32 31 31 30 30 31 31 31 31 30 29 30 30 28 28 27 27 27 27 26 25 25 25 25 24 24 24 24 23 23 23 23 23 22 22 21 21 21 21 21 20 20 19 19

GFSNGP_con_lsi_105.txt.gz
Lid_Strength_Index
11 10 11 13 13 12 13 12 14 12 12 9 7 7 7 6 6 7 7 7 7 7 7 7 7 7 6 6 6 6 6 6 5 4 4 5 8 8 10 11 10 11 12 13
14 11 11 13 12 12 12 12 11 11 11 7 7 6 7 7 7 7 7 7 7 7 7 7 7 7 7 6 6 6 6 7 6 7 9 10 10 10 12 13 13 12 14 14
16 13 13 15 13 12 11 10 11 13 10 7 8 7 7 7 6 6 7 7 7 6 7 6 6 6 7 6 6 7 7 10 10 12 13 12 12 13 13 13 14 14 13 15
16 15 19 12 10 9 11 10 9 9 8 7 7 6 6 5 6 6 6 6 6 6 6 5 5 6 6 6 7 9 9 11 12 12 13 14 14 13 13 14 14 14 14 15
17 16 13 13 12 11 11 11 8 9 8 7 6 7 7 6 5 6 6 6 6 6 6 6 5 6 6 9 9 10 11 11 12 13 14 15 14 15 15 15 15 15 15 15
16 17 19 12 9 8 8 14 8 7 7 7 7 10 8 8 7 7 7 7 7 6 6 6 6 7 9 10 10 11 11 11 12 13 14 14 15 15 15 14 15 16 16 15
16 17 14 10 11 7 14 12 9 7 7 7 8 7 8 8 8 8 8 8 7 6 7 7 8 9 10 11 11 11 12 13 13 13 14 13 13 14 15 15 16 15 15 15
15 17 17 9 10 11 9 9 9 9 9 9 8 8 9 8 9 9 9 9 9 8 8 8 10 10 11 11 12 13 13 14 14 14 14 14 14 14 14 15 16 16 16 17
12 13 8 9 8 8 8 8 8 8 8 9 9 9 9 9 10 10 11 11 11 11 11 11 12 12 12 12 13 14 14 15 14 14 14 14 15 15 15 15 15 16 17 17
12 10 9 9 10 9 8 9 9 8 9 8 9 9 10 11 12 12 13 13 13 13 13 14 13 13 13 13 14 14 14 14 14 14 14 14 14 15 15 16 16 16 17 17
12 12 11 10 9 9 9 9 10 10 10 9 10 11 11 13 13 13 14 14 14 15 15 15 14 14 14 14 14 14 13 14 14 14 14 15 15 15 15 14 14 15 15 15
11 10 9 9 9 9 10 10 10 11 13 12 11 12 13 14 14 14 15 15 15 16 16 16 16 16 16 15 14 14 14 14 14 14 15 15 15 16 15 14 14 13 13 14
13 11 10 10 10 9 11 11 12 12 12 14 13 13 13 15 15 16 16 17 17 17 18 17 17 18 18 17 15 15 14 14 15 16 16 16 16 17 18 16 15 15 14 14
16 13 13 12 13 12 13 14 15 16 16 15 16 16 15 16 17 18 19 19 18 19 20 19 19 20 20 18 16 16 15 16 15 15 15 16 16 16 16 17 18 17 15 15
21 16 14 15 15 15 15 15 17 17 17 18 18 18 18 19 20 21 22 21 19 21 22 22 22 22 21 19 17 16 15 15 15 15 15 15 15 16 16 17 17 17 18 17
24 19 20 20 20 20 20 19 19 20 20 20 21 21 19 20 22 23 23 23 21 24 25 24 24 24 23 20 17 16 16 17 16 15 16 16 16 17 17 17 17 18 19 18
23 23 25 23 23 24 25 25 23 23 23 24 23 22 22 22 22 24 24 23 25 26 26 26 26 24 24 22 19 17 17 17 19 16 16 16 16 16 16 16 16 17 17 18
28 27 27 27 26 26 27 27 27 27 27 26 24 25 25 25 25 25 25 24 24 26 28 28 27 25 23 22 21 19 18 18 18 18 18 17 17 17 17 17 17 18 19 19
30 29 29 29 29 29 29 29 29 29 28 27 26 27 27 28 26 26 26 27 27 25 28 28 25 24 24 24 22 19 19 19 19 19 19 20 19 18 18 18 18 19 19 20
31 30 29 30 30 31 31 31 29 29 30 29 27 27 28 29 29 27 28 30 30 30 30 28 27 25 25 24 24 21 20 20 20 20 20 19 19 19 19 21 20 19 19 20
32 31 31 30 30 31 32 32 31 31 30 30 30 30 29 29 30 29 25 24 28 29 29 27 26 26 24 26 23 22 22 22 21 21 22 21 21 21 21 21 20 20 20 20
32 32 32 31 31 31 32 32 32 32 31 32 31 31 29 28 28 30 32 31 28 28 27 26 25 27 26 26 24 24 24 23 23 23 22 22 22 21 21 21 21 21 21 21
32 32 32 32 33 32 31 32 32 33 33 33 33 33 31 30 29 28 27 28 29 28 26 25 25 25 25 25 25 25 25 25 25 25 24 24 24 23 23 23 22 21 21 21
32 32 32 31 30 31 31 31 32 31 32 31 31 33 32 30 28 28 28 28 28 28 27 26 26 24 27 26 25 25 25 25 25 24 24 25 24 23 23 23 23 22 22 23
32 31 31 31 30 31 31 31 30 29 29 29 29 29 30 29 31 29 29 28 27 28 27 25 24 24 25 25 25 25 24 24 24 25 24 24 24 24 23 23 24 23 23 23
31 31 31 31 31 31 31 30 30 29 29 29 29 28 28 28 28 28 27 27 26 26 26 25 25 26 25 24 24 24 24 23 23 23 24 24 23 23 23 23 23 22 22 21
30 30 29 29 28 29 30 31 30 29 29 29 29 27 27 27 26 26 26 25 25 25 25 24 24 24 24 24 24 23 23 23 23 23 23 23 22 22 22 21 21 20 20 20

GFSNGP_con_lsi_108.txt.gz
Lid_Strength_Index
12 11 12 13 13 12 13 12 15 13 13 10 11 11 10 9 9 9 9 10 10 10 9 9 9 9 8 8 8 8 8 8 7 6 5 5 6 7 8 9 9 9 10 10
15 11 12 14 12 12 12 12 11 12 13 10 9 10 11 10 9 8 8 8 9 10 9 9 9 9 8 8 8 8 8 9 8 8 8 9 10 11 12 12 12 12 12 12
17 13 13 17 13 12 12 11 11 14 11 10 10 10 10 10 9 9 9 9 9 9 9 9 9 8 8 8 7 8 10 11 12 12 13 12 12 13 13 13 14 13 13 14
17 15 21 14 10 9 11 10 9 10 9 9 9 9 9 9 9 8 8 8 8 9 9 9 8 8 8 8 9 10 11 12 12 13 13 14 14 14 14 14 14 14 14 14
17 18 16 15 13 11 12 12 9 9 8 8 8 9 10 9 10 10 9 9 9 9 9 9 9 9 9 11 11 12 12 12 13 13 15 14 14 15 15 15 15 15 15 15
16 18 20 15 12 10 10 15 10 8 9 8 8 13 11 10 10 10 10 10 10 9 9 9 10 10 12 12 12 12 12 12 13 14 14 13 14 15 16 16 15 15 15 15
16 20 17 14 12 9 16 16 12 9 8 9 10 10 11 10 10 10 11 11 10 9 10 10 11 12 12 12 13 12 13 14 15 16 15 13 14 16 15 16 16 15 15 14
17 21 20 13 13 13 12 13 12 11 11 10 11 11 11 11 12 12 12 12 11 11 12 12 13 13 13 14 14 16 16 17 17 17 16 14 14 15 15 16 16 16 16 16
15 16 12 11 11 11 10 11 11 11 11 10 11 11 11 12 12 13 13 13 13 14 14 15 15 14 15 15 16 17 18 19 19 18 14 14 14 15 16 15 16 16 16 16
15 15 13 12 12 11 10 10 10 10 10 10 11 12 13 13 13 14 15 16 16 16 17 17 16 16 17 16 17 17 18 19 18 18 18 16 15 15 15 15 15 16 16 16
15 15 14 14 13 11 11 11 11 11 11 11 11 12 13 14 15 15 16 16 17 18 18 18 18 18 18 16 17 15 18 18 18 18 18 18 16 15 15 15 14 15 15 15
17 15 13 12 11 11 12 12 13 13 14 14 13 14 15 16 16 16 17 18 18 19 19 19 19 20 20 19 18 18 19 19 19 19 19 19 19 20 14 14 13 13 13 14
19 18 13 12 12 12 13 14 14 15 15 15 16 15 16 17 18 18 19 20 20 21 21 21 22 23 22 21 19 19 19 19 20 19 20 21 21 20 20 17 14 14 13 13
21 19 15 15 16 16 16 16 17 18 18 18 18 19 19 20 21 22 22 22 23 24 24 25 25 25 24 23 21 20 21 20 20 21 21 21 21 21 21 21 21 18 14 14
25 20 18 18 18 18 17 17 19 20 20 20 20 21 22 24 25 25 26 26 25 27 27 27 27 26 26 24 23 23 22 22 22 22 22 21 22 22 22 21 21 20 17 16
27 23 22 23 23 24 23 22 22 22 22 23 23 22 23 25 27 28 27 27 28 29 30 30 29 27 27 26 24 23 23 21 22 23 23 23 23 23 23 22 22 22 22 21
28 27 27 28 26 27 28 27 26 25 25 26 26 27 27 27 28 28 29 30 30 31 33 32 31 29 28 27 26 24 25 25 23 24 24 25 24 24 18 22 22 22 22 21
29 28 28 29 29 29 29 30 30 30 29 28 28 28 28 29 31 32 32 32 32 33 32 33 31 29 30 28 27 26 26 27 26 26 25 24 25 25 25 24 23 24 25 23
31 30 29 30 30 29 30 30 30 30 30 28 27 29 29 29 30 33 34 32 32 33 32 33 26 30 30 27 26 26 26 25 25 26 26 26 26 27 26 26 26 26 26 25
32 31 30 30 31 31 31 31 29 30 30 29 28 29 31 31 33 31 33 34 36 35 34 33 33 31 31 30 27 27 28 27 28 28 29 28 27 27 27 25 25 23 23 23
32 32 31 30 30 31 31 31 30 31 30 30 31 31 32 33 33 32 31 32 33 34 33 31 31 30 32 30 29 31 32 31 30 30 30 31 31 30 29 30 29 27 27 25
33 32 32 31 31 31 31 31 31 31 31 31 31 31 30 30 30 32 35 33 32 31 31 31 31 30 29 28 30 31 31 31 32 32 32 32 32 31 31 30 29 29 29 29
33 33 32 32 32 31 30 31 31 31 32 32 32 33 32 30 30 31 31 32 31 30 30 31 28 26 26 31 33 33 33 33 32 32 32 32 32 32 32 32 32 31 31 30
33 32 32 31 29 30 32 31 31 30 30 30 30 32 32 32 30 29 30 30 30 29 30 29 28 24 28 33 33 33 33 33 32 33 32 29 33 32 32 31 30 30 31 29
32 31 31 31 30 31 31 31 30 29 29 29 29 28 29 29 31 30 30 30 28 28 29 28 24 25 32 32 32 32 33 32 32 33 33 31 30 30 30 31 30 29 31 31
31 31 30 30 30 30 30 30 30 29 29 30 29 29 29 29 28 28 28 28 29 28 28 28 29 29 30 29 30 30 28 29 28 28 28 29 29 28 28 28 28 27 27 27
30 29 30 30 29 30 31 31 32 31 31 31 31 30 29 29 29 28 28 28 28 28 28 28 28 27 27 28 28 27 26 26 26 26 27 27 27 26 26 25 25 25 24 24

GFSNGP_con_lsi_111.txt.gz
Lid_Strength_Index
13 12 12 13 13 12 13 12 15 13 14 12 11 12 11 11 11 10 10 10 11 11 11 10 10 10 9 9 9 8 8 8 8 8 6 5 6 6 7 7 7 8 8 9
15 12 12 14 12 12 12 12 12 12 13 10 9 10 11 10 9 9 9 9 10 10 11 10 10 10 9 9 8 8 8 8 9 9 8 9 9 10 9 10 10 10 10 10
17 13 13 17 14 13 12 11 11 14 11 10 10 10 10 9 9 9 9 9 10 10 10 11 11 10 10 9 9 9 9 11 11 11 10 11 12 11 11 11 12 12 12 13
17 15 21 14 9 10 11 10 9 9 10 9 9 9 8 8 9 9 9 9 10 10 10 10 10 9 9 9 10 11 12 12 12 12 12 12 11 11 12 12 12 13 13 13
17 18 15 15 12 11 12 12 9 9 9 9 9 10 10 10 10 11 10 10 10 10 10 10 10 10 11 12 12 12 12 12 12 12 15 13 13 13 12 13 14 13 14 13
16 19 20 15 12 8 9 15 9 8 9 9 10 12 11 11 11 11 11 11 10 10 11 11 12 11 13 13 13 12 12 12 13 14 15 13 13 14 15 15 14 14 14 14
16 20 17 13 12 8 16 14 11 9 8 8 9 9 11 12 12 12 12 11 11 11 12 12 13 13 13 14 14 14 14 14 15 16 14 13 13 15 14 15 15 14 15 15
18 22 18 13 10 12 12 14 13 11 10 9 12 12 12 12 13 13 13 13 12 13 14 14 14 14 14 14 15 16 17 17 17 15 14 13 13 14 14 14 15 15 15 15
14 16 12 13 12 12 12 13 13 12 12 11 12 13 13 13 14 14 14 15 15 15 15 16 16 15 15 16 16 17 18 19 15 17 13 14 13 14 15 14 15 16 16 16
15 15 15 13 13 11 12 12 12 12 12 12 13 13 13 14 15 15 16 16 17 17 18 18 18 18 17 17 16 15 19 19 19 19 19 17 14 14 14 14 15 15 15 15
17 16 15 13 13 12 12 12 13 13 12 12 12 14 14 15 16 16 17 18 18 19 19 20 20 20 21 19 19 18 19 19 19 20 21 20 18 16 15 15 14 15 15 15
18 19 19 14 15 12 13 14 14 14 14 14 14 15 15 17 17 18 19 19 20 21 21 22 23 23 22 22 20 20 19 19 20 20 21 20 21 21 14 14 13 12 12 14
23 21 19 16 16 15 15 16 15 15 15 15 16 16 17 18 19 20 21 22 22 23 24 25 25 25 25 24 22 21 21 21 22 21 22 22 23 23 22 19 13 13 12 13
23 21 18 19 19 18 17 17 18 19 19 18 19 20 20 21 22 22 23 24 25 26 27 28 28 27 26 25 23 23 23 22 23 23 23 23 23 23 24 24 23 17 14 14
26 22 21 20 21 22 20 19 21 21 21 21 22 23 23 25 26 27 28 27 28 29 30 29 28 28 27 26 24 24 22 23 24 25 24 24 24 24 24 24 24 22 18 16
28 24 24 25 26 26 26 25 24 24 24 24 24 24 25 26 28 29 29 29 29 32 32 31 29 29 29 28 26 24 24 22 24 24 24 24 24 24 24 25 25 26 25 24
29 29 29 28 28 29 30 29 28 27 27 27 27 27 27 29 29 29 31 31 32 34 35 32 32 30 30 29 28 27 27 27 26 26 26 28 28 26 18 21 25 26 26 25
30 29 29 29 29 29 30 30 30 30 29 27 27 27 28 29 31 32 32 32 31 32 32 33 31 31 31 30 29 29 29 29 29 30 30 28 29 29 28 26 23 22 22 25
31 31 30 31 30 30 30 30 30 29 28 27 28 29 28 29 31 33 31 30 31 30 31 32 26 30 31 29 28 29 29 29 29 31 31 29 29 30 30 30 29 29 29 28
32 31 30 31 31 31 31 30 29 29 30 28 27 28 29 30 30 30 30 33 34 33 33 32 31 30 31 31 29 31 32 32 32 33 32 32 33 32 32 30 30 29 28 27
33 32 32 31 31 31 31 31 30 31 30 30 30 29 29 29 30 29 30 31 32 31 30 29 30 29 30 28 30 33 34 33 33 33 35 34 34 34 32 33 33 32 31 31
33 32 32 32 31 31 31 31 30 30 30 30 30 30 29 29 29 30 31 31 30 29 29 29 29 27 27 28 30 32 34 35 35 36 36 36 35 35 35 35 35 33 32 33
33 32 32 32 31 31 30 31 31 30 31 31 31 32 31 30 30 30 29 29 29 29 29 29 28 25 25 29 30 31 32 33 34 34 35 36 35 35 35 34 33 34 33 33
33 32 32 31 30 31 32 32 31 30 30 29 30 31 31 31 30 29 29 29 29 28 28 28 26 24 26 29 29 29 29 31 33 33 33 31 35 34 35 32 31 30 30 29
32 31 31 31 31 32 32 32 31 30 30 30 30 29 29 29 30 29 29 29 28 27 28 27 24 25 27 29 29 29 29 29 30 30 31 31 30 30 31 32 31 30 29 28
31 31 31 31 31 31 31 31 32 31 30 30 29 29 29 28 28 28 28 28 28 28 28 27 28 28 28 28 29 29 28 28 28 28 28 28 28 28 28 27 27 27 27 27
31 30 31 30 30 31 31 31 32 31 31 31 31 30 29 29 29 29 28 29 28 28 28 28 28 28 28 28 28 27 27 27 26 26 26 26 26 26 26 26 26 26 26 25

GFSNGP_con_lsi_114.txt.gz
Lid_Strength_Index
13 12 12 13 13 13 14 13 15 13 13 11 12 13 13 12 11 11 10 10 11 11 11 11 11 10 10 10 10 9 9 10 10 9 8 7 6 5 5 6 6 6 6 7
15 12 12 14 13 12 12 12 12 12 13 9 9 11 12 12 11 11 10 10 10 11 11 11 10 10 10 10 10 9 10 10 10 10 10 9 9 9 9 9 10 11 11 11
17 13 13 17 14 13 13 11 11 14 10 11 11 11 12 12 11 11 9 9 10 10 10 10 10 10 10 10 10 10 10 11 11 12 11 11 11 11 11 11 11 11 11 11
16 15 21 13 9 10 12 10 9 9 9 9 9 8 9 10 10 10 9 9 9 10 10 10 10 10 10 11 11 12 12 12 12 12 13 13 11 12 12 12 12 12 11 11
18 17 15 13 13 12 13 13 9 9 8 9 9 10 10 9 9 9 9 9 10 10 10 11 11 11 12 13 13 13 13 13 13 13 16 13 13 12 12 13 13 13 14 13
15 19 20 12 12 8 9 15 8 8 8 8 9 11 9 11 11 11 11 10 11 11 12 12 13 13 14 14 14 14 14 13 13 14 15 13 13 14 14 14 14 14 14 14
15 17 15 13 12 7 16 14 10 8 8 8 9 8 10 11 12 12 12 12 13 13 13 14 14 14 14 14 15 15 15 15 15 15 13 13 13 14 14 14 14 14 14 14
15 17 19 13 9 12 10 13 12 11 9 8 7 11 12 12 13 14 14 14 14 14 16 16 15 14 15 15 16 17 17 16 14 13 13 13 13 13 13 13 14 14 14 14
13 14 13 11 13 11 12 12 12 12 11 8 11 13 13 14 15 15 15 15 15 16 17 17 16 15 15 16 15 17 17 15 15 14 13 13 13 14 14 14 14 15 15 15
13 15 15 15 13 13 12 12 13 13 12 11 13 13 15 15 16 16 16 17 17 17 19 19 19 18 18 17 16 20 19 19 19 19 20 15 14 14 14 14 15 15 15 15
16 17 15 14 16 16 14 13 14 14 14 14 14 15 15 16 17 17 17 18 18 19 20 21 21 21 22 20 20 19 19 20 20 20 21 21 19 18 15 15 14 14 14 14
20 22 21 16 17 16 16 16 16 15 16 16 15 15 16 17 17 18 19 20 21 22 23 24 24 24 24 23 21 21 20 20 20 20 21 21 21 20 14 13 12 12 12 14
24 23 22 19 18 17 17 18 18 17 16 17 17 17 18 19 20 21 22 23 23 24 25 26 26 25 26 25 23 22 21 21 21 21 21 23 23 23 22 19 14 12 12 12
25 25 20 21 22 21 18 19 19 20 20 20 20 21 21 22 23 24 25 26 26 27 28 28 27 28 27 26 24 24 24 24 24 25 25 25 25 25 26 25 24 18 15 14
29 27 23 22 23 24 23 21 23 22 22 23 23 23 23 25 27 27 29 29 29 29 30 29 29 29 29 28 26 26 24 25 27 27 26 26 26 25 26 26 26 20 18 19
30 26 27 26 26 27 26 26 24 25 24 25 25 26 27 28 29 31 31 30 30 33 33 31 30 31 30 29 28 27 27 24 26 28 26 26 25 26 25 26 27 28 27 26
32 31 31 30 27 28 29 28 27 27 26 26 26 27 28 28 29 31 31 32 32 32 33 32 31 31 32 30 29 29 28 28 28 27 28 30 30 27 26 28 28 28 28 26
31 30 30 30 29 28 28 29 29 28 28 27 26 27 28 29 29 30 29 29 30 30 31 30 28 31 31 29 31 31 31 31 31 32 31 29 31 30 31 30 26 26 25 25
31 31 31 31 31 30 30 30 29 28 28 27 27 29 29 29 29 29 29 30 30 30 31 30 26 30 30 28 29 30 31 31 31 33 33 32 31 32 32 33 32 32 31 29
32 31 31 31 31 32 32 31 30 30 29 27 27 28 29 29 28 29 29 31 31 31 31 31 31 31 31 31 29 32 32 32 31 31 31 32 33 34 33 32 33 33 34 33
33 32 31 31 31 31 31 30 30 30 30 29 29 29 29 29 29 28 28 29 30 30 29 29 29 28 28 28 30 33 33 33 32 34 34 36 35 36 35 37 36 35 34 34
33 33 32 31 30 31 31 30 30 30 30 30 30 29 28 29 28 29 30 30 29 29 28 29 29 27 27 28 31 33 33 34 34 35 36 37 37 37 36 36 36 34 34 35
32 32 32 32 31 31 30 31 30 30 30 30 31 31 30 30 29 29 29 29 29 29 28 29 29 26 24 30 32 33 34 34 34 34 35 36 35 35 34 33 32 32 32 31
32 32 32 31 30 31 32 32 30 30 30 30 30 30 31 30 29 29 29 29 29 29 28 28 27 25 25 28 30 30 30 31 32 31 30 30 31 32 32 31 31 29 31 31
32 31 31 31 31 32 32 32 31 31 31 31 31 30 30 29 31 30 29 29 28 28 29 28 25 25 27 28 28 29 28 28 29 29 29 30 30 30 29 30 30 30 30 29
32 32 31 31 31 31 32 32 33 32 33 33 32 31 31 30 30 29 29 29 28 28 28 28 27 28 28 28 28 28 28 28 28 28 28 28 28 28 28 28 28 27 26 26
32 30 31 31 31 32 33 33 34 33 34 35 34 32 33 31 31 30 29 29 29 29 29 29 28 28 28 28 28 28 27 27 27 27 27 27 27 27 26 26 26 25 25 25

GFSNGP_con_lsi_117.txt.gz
Lid_Strength_Index
12 12 13 13 13 13 14 13 16 14 13 10 10 11 11 12 12 11 11 11 11 12 11 11 11 10 10 10 10 10 10 10 10 10 9 9 8 8 7 6 5 5 5 5
14 12 12 14 12 12 12 12 12 13 13 8 9 10 12 12 12 12 11 10 10 11 11 10 10 11 11 11 10 9 9 10 10 10 11 9 9 10 10 10 9 9 10 10
17 13 13 17 13 12 12 11 11 14 11 9 10 10 10 12 12 11 11 10 10 10 10 10 10 10 10 10 10 10 10 12 12 12 12 12 12 12 12 11 11 11 11 11
20 17 20 14 10 9 11 11 10 10 9 8 8 8 9 8 10 11 12 10 10 10 10 10 10 10 10 11 11 11 12 13 13 13 13 13 12 12 12 12 13 12 12 12
22 24 15 14 13 11 12 12 9 9 8 8 7 10 10 8 10 10 10 10 10 10 10 11 11 11 12 13 13 13 14 14 14 14 15 14 13 12 13 13 14 13 14 14
23 24 22 15 11 8 8 15 9 8 8 8 9 11 8 10 10 10 10 10 11 12 12 12 13 13 13 14 15 15 15 15 15 15 15 14 14 14 15 14 14 14 13 13
16 19 17 13 10 7 16 14 11 7 8 8 9 7 8 10 11 11 11 12 13 13 14 15 14 14 15 16 16 16 16 16 15 15 14 14 14 14 14 14 14 13 13 13
14 16 19 11 10 12 9 12 12 10 7 8 7 7 11 11 13 13 14 14 15 16 16 16 15 15 16 16 16 17 16 15 14 14 14 13 13 13 13 13 13 15 14 14
13 13 11 11 14 13 13 12 12 12 11 10 9 11 12 14 14 15 15 16 16 17 17 18 17 16 16 16 16 18 15 16 15 14 13 13 13 13 13 13 14 15 15 14
12 13 16 15 14 15 15 13 13 13 13 12 12 13 15 15 15 16 16 17 18 18 19 20 20 19 18 18 18 19 18 18 19 19 16 14 14 14 14 14 14 14 14 14
13 15 17 15 17 17 16 15 16 14 15 14 14 15 15 16 17 17 18 19 19 20 21 21 21 21 22 20 19 18 19 19 19 20 21 20 19 17 16 15 14 15 15 15
20 23 24 22 19 19 18 17 17 16 16 16 15 16 17 18 19 19 20 21 22 22 22 23 23 24 24 23 21 21 20 20 20 21 22 22 22 21 14 13 12 12 12 15
27 26 26 24 22 20 21 19 19 18 17 18 18 18 19 21 22 22 23 24 24 25 25 25 25 26 26 25 23 22 22 22 23 22 23 24 24 22 22 20 14 13 13 13
25 27 23 23 24 23 22 20 20 20 21 21 22 22 22 23 24 25 25 26 27 27 28 27 27 28 28 27 24 24 25 25 26 26 25 25 24 26 26 25 24 20 16 15
29 28 26 24 24 25 24 22 22 23 23 24 24 24 25 27 27 28 28 28 28 29 30 29 29 29 29 28 27 27 25 26 28 27 27 26 25 24 25 26 25 20 21 20
30 29 28 28 28 27 27 27 25 25 25 25 26 27 28 29 29 30 30 30 29 32 32 30 30 30 29 29 29 29 29 26 28 28 27 26 26 25 25 26 27 27 27 27
33 33 32 32 31 29 29 28 27 26 26 26 27 27 28 28 29 30 31 31 31 32 32 30 31 30 30 30 31 30 31 29 28 27 28 29 30 29 29 28 29 30 29 25
31 31 30 31 31 31 30 29 28 28 28 26 26 26 27 28 30 30 30 30 30 31 31 30 29 30 30 30 31 31 30 31 31 32 31 30 31 31 31 31 31 31 30 29
31 31 31 30 31 31 31 30 30 29 27 27 27 28 28 28 28 29 28 29 29 30 31 30 26 29 29 27 29 29 29 30 31 31 31 31 31 33 33 34 34 35 34 31
32 31 31 31 31 31 31 30 29 29 29 27 27 28 28 28 28 29 29 31 31 30 29 29 28 28 29 29 28 30 30 30 30 32 31 32 34 36 36 35 36 36 37 36
33 32 31 31 31 31 31 30 30 30 30 29 28 29 29 29 29 28 27 29 30 29 28 28 28 27 27 28 29 30 32 31 32 32 34 35 35 34 32 35 35 36 34 35
32 32 32 31 31 31 31 30 30 30 30 30 30 29 29 29 28 29 29 30 29 28 28 28 29 27 27 28 31 32 32 32 34 35 34 35 36 34 33 33 34 33 34 33
32 32 31 31 31 31 30 31 30 30 30 30 31 31 30 29 29 29 29 29 29 28 28 28 28 26 24 29 31 31 32 32 32 32 33 34 34 34 33 32 32 32 32 32
32 31 31 30 30 31 32 32 31 31 30 30 30 30 30 31 29 28 29 29 29 29 29 29 27 25 26 29 30 30 31 31 31 32 32 30 31 31 31 31 31 30 30 30
31 31 30 31 31 32 32 32 31 31 31 31 31 30 30 30 31 30 30 30 29 29 30 29 26 26 30 31 31 31 31 31 31 33 31 30 30 29 29 29 29 29 28 28
32 32 31 31 31 31 32 32 33 32 33 33 32 32 32 31 31 31 31 30 30 30 30 29 30 30 30 31 31 30 29 29 29 29 29 29 28 29 28 28 28 28 28 28
33 32 33 32 31 32 33 33 34 34 35 37 35 33 33 32 32 31 31 31 31 30 30 30 30 30 30 30 30 29 29 28 28 28 28 28 28 28 27 27 27 27 26 26

GFSNGP_con_lsi_123.txt.gz
Lid_Strength_Index
13 13 12 13 13 13 14 13 15 14 14 13 11 9 9 8 9 8 7 9 9 10 10 10 10 10 10 11 10 10 10 10 10 9 9 8 8 7 8 8 7 6 5 5
15 13 12 14 12 12 12 12 13 12 13 9 10 9 10 9 8 8 8 9 10 10 10 10 10 10 11 11 11 10 10 10 10 10 9 8 9 9 9 9 10 10 10 10
17 13 14 17 13 13 12 11 11 14 12 9 9 9 8 8 7 8 8 8 9 9 9 9 10 11 10 10 11 11 11 12 12 11 11 11 11 11 11 11 11 11 11 11
17 19 22 15 12 11 12 11 10 10 10 9 9 8 8 7 8 7 7 7 7 9 10 10 11 10 10 10 11 12 13 13 12 12 12 12 11 12 12 12 12 12 12 12
21 26 18 16 14 13 13 13 10 10 10 9 8 9 10 7 6 6 6 6 6 6 9 10 10 11 11 12 13 13 13 13 13 12 13 12 12 12 12 13 13 13 13 14
26 27 27 17 13 11 11 16 11 11 11 11 10 12 10 9 8 7 6 6 6 9 10 10 11 12 13 13 13 13 13 13 13 13 13 13 13 13 14 14 14 14 15 15
28 27 20 15 13 9 17 17 14 13 14 14 14 12 13 11 10 9 9 10 11 11 11 12 13 13 13 14 14 14 14 14 14 14 14 13 14 14 14 14 14 14 15 15
25 26 23 13 13 14 15 15 15 15 15 16 15 15 14 13 12 10 11 13 13 14 14 14 14 14 14 14 15 15 15 14 14 14 14 14 14 14 14 14 14 14 14 15
15 16 13 14 14 17 18 18 18 18 16 17 17 16 14 14 12 12 14 15 15 15 16 16 15 14 15 16 16 16 14 14 14 14 14 14 14 14 14 14 14 15 15 14
14 14 15 15 16 18 19 19 19 18 19 18 18 16 15 14 13 13 15 17 17 16 18 19 19 18 18 17 16 15 15 15 15 15 15 15 14 14 14 14 14 14 14 15
16 16 16 17 19 20 20 19 19 19 19 19 17 17 16 14 14 15 17 18 19 19 20 21 21 21 21 19 18 17 17 17 17 17 16 17 16 15 15 15 14 15 15 15
19 25 25 22 22 21 22 21 21 21 20 19 17 18 17 16 17 18 19 20 21 22 22 23 23 24 23 21 19 19 20 19 19 19 19 17 16 15 13 13 13 13 13 15
27 26 25 24 23 21 23 22 21 21 21 19 19 20 20 19 20 22 22 23 24 25 25 25 25 26 25 23 20 19 20 20 20 20 20 20 18 17 17 16 14 14 13 13
25 26 25 25 26 25 23 23 23 22 21 21 22 23 23 23 24 25 26 26 26 26 27 26 27 28 27 24 22 22 21 21 21 21 21 21 21 21 20 20 19 19 17 15
28 27 27 26 25 25 25 25 26 25 24 24 24 25 26 27 28 28 28 27 27 28 28 28 28 29 27 24 24 24 23 23 23 22 22 22 22 22 21 20 21 21 22 18
29 28 27 29 28 27 27 27 28 27 26 25 26 27 27 28 29 29 29 29 29 30 29 29 29 29 28 26 25 25 24 24 24 24 23 23 23 23 23 24 24 24 23 22
31 31 31 31 29 29 29 28 28 28 27 26 26 26 27 27 28 28 29 29 29 29 28 28 29 27 27 26 26 25 25 25 24 25 26 25 25 25 25 25 26 26 27 25
31 30 30 30 30 30 30 29 29 28 28 26 26 27 28 28 29 28 28 27 28 29 29 27 27 27 26 27 26 25 25 26 26 26 26 26 27 27 27 27 27 27 28 27
30 30 29 29 28 29 30 30 30 28 28 27 27 28 28 28 28 29 29 29 30 30 29 28 24 27 27 24 26 26 26 26 26 26 27 26 26 27 27 28 28 28 29 28
31 29 29 29 28 29 30 30 29 29 29 28 28 28 29 29 28 28 28 30 30 30 28 28 27 27 27 27 26 27 27 27 27 27 27 27 28 28 28 28 28 28 29 29
30 29 29 29 29 28 29 30 30 30 30 29 30 29 29 28 29 29 29 30 30 28 27 27 28 27 26 26 27 28 28 28 28 28 28 28 29 28 28 29 29 29 30 30
29 29 29 29 29 29 29 30 30 30 30 30 30 30 29 29 29 29 29 30 29 28 27 28 28 26 25 26 27 28 28 28 28 28 28 29 29 29 30 30 30 30 30 31
28 28 28 29 29 29 28 29 30 30 30 30 31 31 30 30 29 30 30 29 28 28 28 28 27 25 25 27 28 28 29 29 29 29 29 30 30 30 31 31 31 31 32 32
28 28 28 27 27 28 30 29 29 28 29 28 29 29 30 30 29 28 28 28 29 28 28 27 27 25 27 28 29 29 29 29 30 30 30 30 30 31 32 32 31 31 31 32
30 29 27 27 27 28 29 29 28 28 29 29 28 28 28 28 30 29 29 29 28 28 29 27 26 27 29 29 29 29 30 30 30 30 30 31 31 32 31 31 32 32 31 31
34 33 32 31 30 29 29 29 30 29 29 30 29 28 29 28 29 29 28 28 28 28 29 29 29 29 29 30 30 30 30 30 30 30 30 31 31 32 31 31 31 31 30 30
37 33 35 33 32 32 33 32 32 31 31 32 32 30 30 30 30 29 29 29 29 29 29 30 29 29 30 30 30 30 30 30 29 30 30 31 31 31 30 30 30 30 29 29